Regional Weather Roundup
Issued by NWS

Home | Current Version | Previous Version | Graphics & Text | Print | Product List | Glossary On
Versions: 1 2 3 4 5 6 7 8 9 10 11 12 13 14 15 16 17 18 19 20 21 22 23 24 25 26 27 28 29 30 31 32 33 34 35 36 37 38 39 40 41 42 43 44 45 46 47 48 49 50
000
ASUS45 KABQ 270801
RWRNM
WEATHER ROUNDUP FOR NEW MEXICO
NATIONAL WEATHER SERVICE ALBUQUERQUE NM
100 AM MST TUE JAN 27 2015

NOTE: "FAIR" MEANS FEW OR NO CLOUDS BELOW 12,000 FEET AGL WITH NO
       SIGNIFICANT WEATHER OR OBSTRUCTIONS TO VISION.

      THIS PRODUCT IS RELEASED AS TWO VERSIONS.  ONE VERSION NEAR
      THE TOP OF THE HOUR CONTAINING PRELIMINARY DATA FROM ALBUQUERQUE
      AND OTHER STATIONS.  A FINAL VERSION WITH ADDITIONAL DATA IS
      ISSUED ABOUT 10 MINUTES AFTER THE HOUR.

NMZ501-503-504-510>518-270900-
NORTHWEST PLATEAU/NORTHCENTRAL MOUNTAINS

CITY           SKY/WX    TMP DP  RH WIND       PRES   REMARKS
FARMINGTON     CLEAR     35  24  64 E9        30.32S WCI  28
SANTA FE       NOT AVBL
TAOS           CLEAR     28  21  74 N7        30.41F WCI  21

$$
NMZ402-403-502-505>509-270900-
WESTCENTRAL MOUNTAINS/SOUTHWEST MOUNTAINS

CITY           SKY/WX    TMP DP  RH WIND       PRES   REMARKS
GALLUP         MOCLDY    28  24  85 CALM      30.35R
GRANTS         PTCLDY    32  25  73 S5        30.37S WCI  28
SILVER CITY    CLOUDY    45  30  57 N8        30.35S

$$
NMZ407-409-411-412-270900-
SOUTHERN DESERTS

CITY           SKY/WX    TMP DP  RH WIND       PRES   REMARKS
DEMING         CLOUDY    47  34  60 W6        30.31S
HOLLOMAN AFB   CLEAR     34  29  83 CALM      30.29S
ALAMOGORDO     CLEAR     37  27  65 N3        30.30F
T OR C         PTCLDY    42  27  55 W7        30.31R

$$
NMZ519>523-270900-
CENTRAL VALLEYS/CENTRAL HIGHLANDS

CITY           SKY/WX    TMP DP  RH WIND       PRES   REMARKS
ALBUQUERQUE    PTCLDY    37  26  64 SE3       30.34F
DOUBLE EAGLE   PTCLDY    37  25  63 N6        30.35F WCI  32
MORIARTY ARPT  FAIR      26  23  90 N5        30.38S WCI  20
CLINES CORNERS PTCLDY    38  23  55 W7        30.36S WCI  33
BELEN          FAIR      29  26  87 NW3       30.33F
SOCORRO        NOT AVBL

$$
NMZ524>526-539-540-270900-
SOUTHCENTRAL MOUNTAINS

CITY           SKY/WX    TMP DP  RH WIND       PRES   REMARKS
RUIDOSO        NOT AVBL

$$
NMZ527>531-270900-
NORTHEAST HIGHLANDS/NORTHEAST PLAINS

CITY           SKY/WX    TMP DP  RH WIND       PRES   REMARKS
LAS VEGAS      PTCLDY    33  24  69 CALM      30.36F
RATON          CLEAR     30  25  81 NE7       30.33F WCI  23
CLAYTON        CLEAR     42  28  57 W9        30.25F

$$
NMZ532>537-270900-
EASTCENTRAL PLAINS

CITY           SKY/WX    TMP DP  RH WIND       PRES   REMARKS
TUCUMCARI      CLEAR     40  32  73 W7        30.26F
CANNON AFB     PTCLDY    42  29  59 N10       30.26F
CLOVIS AIRPORT CLEAR     45  28  53 NW12      30.26F

$$
NMZ028-029-538-270900-
SOUTHEAST PLAINS

CITY           SKY/WX    TMP DP  RH WIND       PRES   REMARKS
ROSWELL        CLEAR     39  32  76 N3        30.27S
ARTESIA        CLEAR     36  36 100 CALM      30.29R
CARLSBAD       CLEAR     35  31  85 N7        30.25F WCI  29
HOBBS          PTCLDY    39  32  75 NW12      30.25F WCI  32


$$


USA.gov is the U.S. government's official web portal to all federal, state and local government web resources and services.